This is the latest recevied weather packets stored in our database for station/object KC3SOZ. If no packets are shown the sender has not sent any weather packets the latest 10 day(s).
| Time | Temp. | Humidity | Pressure | Rain* | Wind** | Luminosity | Snow |
|---|---|---|---|---|---|---|---|
| 1778109566 | 16.11° C | 97% | 1009.1 hPa | 0 mm | - | 18 W/m² | - |
| 1778109264 | 16.11° C | 98% | 1009.1 hPa | 0 mm | - | 20 W/m² | - |
| 1778108961 | 16.11° C | 97% | 1009.2 hPa | 0 mm | - | 17 W/m² | - |
| 1778108657 | 16.67° C | 97% | 1009.3 hPa | 0 mm | - | 15 W/m² | - |
| 1778108354 | 16.67° C | 96% | 1009.1 hPa | 0 mm | - | 21 W/m² | - |
| 1778108052 | 16.67° C | 96% | 1009.1 hPa | 0 mm | - | 29 W/m² | - |
| 1778107748 | 16.11° C | 96% | 1009 hPa | 0 mm | - | 29 W/m² | - |
| 1778107446 | 16.11° C | 96% | 1008.9 hPa | 0 mm | - | 28 W/m² | - |
| 1778107142 | 16.11° C | 99% | 1008.8 hPa | 0 mm | - | 21 W/m² | - |
| 1778106837 | 16.67° C | 99% | 1008.9 hPa | 0 mm | - | 18 W/m² | - |
| 1778106534 | 16.67° C | 99% | 1008.7 hPa | 0 mm | - | 13 W/m² | - |
| 1778106230 | 16.67° C | 99% | 1009 hPa | 0 mm | - | 22 W/m² | - |
| 1778105928 | 16.67° C | 99% | 1009 hPa | 0 mm | - | 30 W/m² | - |
| 1778105625 | 16.67° C | 99% | 1008.8 hPa | 0 mm | - | 38 W/m² | - |
| 1778105323 | 16.67° C | 99% | 1008.6 hPa | 0 mm | - | 51 W/m² | - |
| 1778105018 | 16.67° C | 99% | 1008.4 hPa | 0 mm | - | 43 W/m² | - |
| 1778104715 | 16.67° C | 99% | 1008.4 hPa | 0 mm | - | 75 W/m² | - |
| 1778104411 | 16.67° C | 99% | 1008.4 hPa | 0 mm | - | 111 W/m² | - |
| 1778104107 | 16.67° C | 99% | 1008.4 hPa | 0 mm | - | 110 W/m² | - |
| 1778103804 | 16.67° C | 99% | 1008.2 hPa | 0 mm | - | 88 W/m² | - |
| 1778103502 | 16.67° C | 99% | 1008.2 hPa | 0 mm | - | 64 W/m² | - |
| 1778103199 | 16.67° C | 99% | 1008.2 hPa | 0 mm | - | 33 W/m² | - |
| 1778102896 | 16.67° C | 99% | 1008.1 hPa | 1.78 mm | - | 20 W/m² | - |
| 1778102592 | 17.22° C | 99% | 1008 hPa | 3.05 mm | - | 13 W/m² | - |
| 1778102287 | 17.22° C | 97% | 1007.9 hPa | 1.27 mm | - | 15 W/m² | - |
* Rain latest hour (hover to see other rain measurements)
** Current wind speed in m/s (hover to see current wind gust speed)